Time,TemperatureF,DewpointF,PressureIn,WindDirection,WindDirectionDegrees,WindSpeedMPH,WindSpeedGustMPH,Humidity,HourlyPrecipIn,Conditions,Clouds,dailyrainin,SoftwareType,DateUTC
2014-01-04 00:03:00,19.1,10.3,29.70,SSW,202,18.0,30.0,68,0.00,,,-99.99,WeatherLink 5.5,2014-01-04 06:03:00,
2014-01-04 00:18:00,19.1,10.3,29.70,SSW,202,18.0,30.0,68,0.00,,,-99.99,WeatherLink 5.5,2014-01-04 06:18:00,
2014-01-04 00:33:00,19.2,10.4,29.69,SSW,202,19.0,34.0,68,0.00,,,-99.99,WeatherLink 5.5,2014-01-04 06:33:00,
2014-01-04 00:48:00,19.2,10.4,29.68,SSW,202,17.0,32.0,68,0.00,,,-99.99,WeatherLink 5.5,2014-01-04 06:48:00,
2014-01-04 01:03:00,19.4,10.6,29.67,SSW,202,20.0,31.0,68,0.00,,,-99.99,WeatherLink 5.5,2014-01-04 07:03:00,
2014-01-04 01:18:00,19.5,10.6,29.67,SSW,202,20.0,33.0,68,0.00,,,-99.99,WeatherLink 5.5,2014-01-04 07:18:00,
2014-01-04 01:33:00,19.7,11.2,29.66,SSW,202,17.0,31.0,69,0.00,,,-99.99,WeatherLink 5.5,2014-01-04 07:33:00,
2014-01-04 01:48:00,19.7,11.2,29.66,SSW,202,18.0,31.0,69,0.00,,,-99.99,WeatherLink 5.5,2014-01-04 07:48:00,
2014-01-04 02:03:00,20.0,11.5,29.65,SSW,202,17.0,29.0,69,0.00,,,-99.99,WeatherLink 5.5,2014-01-04 08:03:00,
2014-01-04 02:18:00,20.3,11.7,29.64,SSW,202,15.0,28.0,69,0.00,,,-99.99,WeatherLink 5.5,2014-01-04 08:18:00,
2014-01-04 02:33:00,20.6,11.7,29.64,SSW,202,17.0,28.0,68,0.00,,,-99.99,WeatherLink 5.5,2014-01-04 08:33:00,
2014-01-04 02:48:00,21.1,12.2,29.63,SSW,202,18.0,32.0,68,0.00,,,-99.99,WeatherLink 5.5,2014-01-04 08:48:00,
2014-01-04 03:03:00,21.1,12.2,29.63,SSW,202,17.0,29.0,68,0.00,,,-99.99,WeatherLink 5.5,2014-01-04 09:03:00,
2014-01-04 03:18:00,21.1,12.5,29.62,SSW,202,15.0,26.0,69,0.00,,,-99.99,WeatherLink 5.5,2014-01-04 09:18:00,
2014-01-04 03:33:00,21.4,12.5,29.61,SSW,202,16.0,26.0,68,0.00,,,-99.99,WeatherLink 5.5,2014-01-04 09:33:00,
2014-01-04 03:48:00,21.4,12.8,29.62,SSW,202,13.0,22.0,69,0.00,,,-99.99,WeatherLink 5.5,2014-01-04 09:48:00,
2014-01-04 04:03:00,21.4,12.8,29.61,SSW,202,13.0,24.0,69,0.00,,,-99.99,WeatherLink 5.5,2014-01-04 10:03:00,
2014-01-04 04:18:00,21.6,13.0,29.61,SSW,202,14.0,24.0,69,0.00,,,-99.99,WeatherLink 5.5,2014-01-04 10:18:00,
2014-01-04 04:33:00,21.9,13.3,29.60,SSW,202,13.0,26.0,69,0.00,,,-99.99,WeatherLink 5.5,2014-01-04 10:33:00,
2014-01-04 04:48:00,22.7,13.7,29.60,SSW,202,14.0,27.0,68,0.00,,,-99.99,WeatherLink 5.5,2014-01-04 10:48:00,
2014-01-04 05:03:00,23.0,14.0,29.60,SSW,202,14.0,28.0,68,0.00,,,-99.99,WeatherLink 5.5,2014-01-04 11:03:00,
2014-01-04 05:18:00,23.5,14.5,29.59,SSW,202,15.0,24.0,68,0.00,,,-99.99,WeatherLink 5.5,2014-01-04 11:18:00,
2014-01-04 05:33:00,23.6,14.9,29.61,SSW,202,15.0,27.0,69,0.00,,,-99.99,WeatherLink 5.5,2014-01-04 11:33:00,
2014-01-04 05:48:00,23.6,14.9,29.61,SW,225,14.0,29.0,69,0.00,,,-99.99,WeatherLink 5.5,2014-01-04 11:48:00,
2014-01-04 06:03:00,23.8,15.1,29.61,SW,225,18.0,31.0,69,0.00,,,-99.99,WeatherLink 5.5,2014-01-04 12:03:00,
2014-01-04 06:18:00,23.8,15.1,29.61,SW,225,17.0,26.0,69,0.00,,,-99.99,WeatherLink 5.5,2014-01-04 12:18:00,
2014-01-04 06:33:00,23.8,15.8,29.60,SW,225,17.0,29.0,71,0.00,,,-99.99,WeatherLink 5.5,2014-01-04 12:33:00,
2014-01-04 06:48:00,23.8,15.4,29.61,SW,225,18.0,30.0,70,0.00,,,-99.99,WeatherLink 5.5,2014-01-04 12:48:00,
2014-01-04 07:03:00,23.5,16.4,29.61,SW,225,18.0,31.0,74,0.00,,,-99.99,WeatherLink 5.5,2014-01-04 13:03:00,
2014-01-04 07:18:00,23.5,16.4,29.60,SW,225,16.0,28.0,74,0.00,,,-99.99,WeatherLink 5.5,2014-01-04 13:18:00,
2014-01-04 07:33:00,24.1,16.1,29.60,SSW,202,16.0,30.0,71,0.00,,,-99.99,WeatherLink 5.5,2014-01-04 13:33:00,
2014-01-04 07:48:00,24.2,16.1,29.61,SW,225,15.0,26.0,71,0.00,,,-99.99,WeatherLink 5.5,2014-01-04 13:48:00,
2014-01-04 08:03:00,24.1,16.7,29.62,SW,225,17.0,27.0,73,0.00,,,-99.99,WeatherLink 5.5,2014-01-04 14:03:00,
2014-01-04 08:18:00,24.2,16.5,29.63,SW,225,18.0,30.0,72,0.00,,,-99.99,WeatherLink 5.5,2014-01-04 14:18:00,
2014-01-04 08:33:00,24.1,17.0,29.65,SW,225,17.0,28.0,74,0.00,,,-99.99,WeatherLink 5.5,2014-01-04 14:33:00,
2014-01-04 08:48:00,24.2,17.1,29.67,SW,225,17.0,29.0,74,0.00,,,-99.99,WeatherLink 5.5,2014-01-04 14:48:00,
2014-01-04 09:03:00,24.2,17.1,29.66,SW,225,18.0,32.0,74,0.00,,,-99.99,WeatherLink 5.5,2014-01-04 15:03:00,
2014-01-04 09:18:00,24.2,17.1,29.67,SW,225,15.0,25.0,74,0.00,,,-99.99,WeatherLink 5.5,2014-01-04 15:18:00,
2014-01-04 09:33:00,24.4,17.0,29.68,SW,225,14.0,25.0,73,0.00,,,-99.99,WeatherLink 5.5,2014-01-04 15:33:00,
2014-01-04 09:48:00,24.5,17.4,29.67,SW,225,13.0,22.0,74,0.00,,,-99.99,WeatherLink 5.5,2014-01-04 15:48:00,
2014-01-04 10:03:00,24.7,17.3,29.67,SW,225,15.0,25.0,73,0.00,,,-99.99,WeatherLink 5.5,2014-01-04 16:03:00,
2014-01-04 10:18:00,24.8,17.4,29.69,SW,225,14.0,24.0,73,0.00,,,-99.99,WeatherLink 5.5,2014-01-04 16:18:00,
2014-01-04 10:33:00,25.0,17.6,29.68,SW,225,13.0,20.0,73,0.00,,,-99.99,WeatherLink 5.5,2014-01-04 16:33:00,
2014-01-04 10:48:00,25.3,17.9,29.70,SW,225,12.0,22.0,73,0.00,,,-99.99,WeatherLink 5.5,2014-01-04 16:48:00,
2014-01-04 11:03:00,25.3,18.2,29.70,SW,225,12.0,21.0,74,0.00,,,-99.99,WeatherLink 5.5,2014-01-04 17:03:00,
2014-01-04 11:18:00,25.3,18.8,29.71,SW,225,11.0,20.0,76,0.00,,,-99.99,WeatherLink 5.5,2014-01-04 17:18:00,
2014-01-04 11:33:00,25.3,18.8,29.70,SW,225,9.0,19.0,76,0.00,,,-99.99,WeatherLink 5.5,2014-01-04 17:33:00,
2014-01-04 11:48:00,25.4,19.2,29.70,WSW,247,10.0,19.0,77,0.00,,,-99.99,WeatherLink 5.5,2014-01-04 17:48:00,
2014-01-04 12:03:00,25.4,19.5,29.70,SW,225,9.0,17.0,78,0.00,,,-99.99,WeatherLink 5.5,2014-01-04 18:03:00,
2014-01-04 12:18:00,25.6,19.7,29.70,WSW,247,9.0,17.0,78,0.00,,,-99.99,WeatherLink 5.5,2014-01-04 18:18:00,
2014-01-04 12:33:00,25.8,19.9,29.72,West,270,9.0,16.0,78,0.00,,,-99.99,WeatherLink 5.5,2014-01-04 18:33:00,
2014-01-04 12:48:00,25.8,20.5,29.73,West,270,9.0,16.0,80,0.00,,,-99.99,WeatherLink 5.5,2014-01-04 18:48:00,
2014-01-04 13:03:00,26.0,21.0,29.74,West,270,9.0,14.0,81,0.00,,,-99.99,WeatherLink 5.5,2014-01-04 19:03:00,
2014-01-04 13:18:00,26.0,21.3,29.75,West,270,8.0,14.0,82,0.00,,,-99.99,WeatherLink 5.5,2014-01-04 19:18:00,
2014-01-04 13:33:00,26.3,21.3,29.75,West,270,7.0,12.0,81,0.00,,,-99.99,WeatherLink 5.5,2014-01-04 19:33:00,
2014-01-04 13:48:00,26.6,21.3,29.76,West,270,7.0,13.0,80,0.00,,,-99.99,WeatherLink 5.5,2014-01-04 19:48:00,
2014-01-04 14:03:00,26.7,21.4,29.77,West,270,8.0,12.0,80,0.00,,,-99.99,WeatherLink 5.5,2014-01-04 20:03:00,
2014-01-04 14:18:00,26.7,21.1,29.77,WNW,292,9.0,14.0,79,0.00,,,-99.99,WeatherLink 5.5,2014-01-04 20:18:00,
2014-01-04 14:33:00,26.9,20.7,29.78,NW,315,9.0,14.0,77,0.00,,,-99.99,WeatherLink 5.5,2014-01-04 20:33:00,
2014-01-04 14:48:00,26.7,20.1,29.80,NW,315,9.0,14.0,76,0.00,,,-99.99,WeatherLink 5.5,2014-01-04 20:48:00,
2014-01-04 15:03:00,25.7,17.6,29.83,NNW,337,10.0,18.0,71,0.00,,,-99.99,WeatherLink 5.5,2014-01-04 21:03:00,
2014-01-04 15:18:00,24.8,16.4,29.83,NNW,337,9.0,18.0,70,0.00,,,-99.99,WeatherLink 5.5,2014-01-04 21:18:00,
2014-01-04 15:33:00,24.2,15.5,29.85,NNW,337,11.0,20.0,69,0.00,,,-99.99,WeatherLink 5.5,2014-01-04 21:33:00,
2014-01-04 15:48:00,23.9,14.5,29.86,NNW,337,11.0,19.0,67,0.00,,,-99.99,WeatherLink 5.5,2014-01-04 21:48:00,
2014-01-04 16:03:00,23.6,14.2,29.88,NNW,337,11.0,21.0,67,0.00,,,-99.99,WeatherLink 5.5,2014-01-04 22:03:00,
2014-01-04 16:18:00,23.2,13.9,29.88,NNW,337,12.0,24.0,67,0.00,,,-99.99,WeatherLink 5.5,2014-01-04 22:18:00,
2014-01-04 16:33:00,22.4,12.8,29.89,NNW,337,13.0,25.0,66,0.00,,,-99.99,WeatherLink 5.5,2014-01-04 22:33:00,
2014-01-04 16:48:00,21.8,12.5,29.91,NNW,337,12.0,20.0,67,0.00,,,-99.99,WeatherLink 5.5,2014-01-04 22:48:00,
2014-01-04 17:03:00,21.1,12.2,29.92,NNW,337,12.0,20.0,68,0.00,,,-99.99,WeatherLink 5.5,2014-01-04 23:03:00,
2014-01-04 17:18:00,20.3,11.1,29.93,NNW,337,10.0,19.0,67,0.00,,,-99.99,WeatherLink 5.5,2014-01-04 23:18:00,
2014-01-04 17:33:00,19.9,11.0,29.94,NNW,337,10.0,21.0,68,0.00,,,-99.99,WeatherLink 5.5,2014-01-04 23:33:00,
2014-01-04 17:48:00,19.2,10.0,29.94,NNW,337,9.0,16.0,67,0.00,,,-99.99,WeatherLink 5.5,2014-01-04 23:48:00,
2014-01-04 18:03:00,18.8,10.3,29.95,NNW,337,8.0,14.0,69,0.00,,,-99.99,WeatherLink 5.5,2014-01-05 00:03:00,
2014-01-04 18:18:00,18.4,9.9,29.97,NNW,337,9.0,16.0,69,0.00,,,-99.99,WeatherLink 5.5,2014-01-05 00:18:00,
2014-01-04 18:33:00,18.1,9.6,29.97,NNW,337,10.0,20.0,69,0.00,,,-99.99,WeatherLink 5.5,2014-01-05 00:33:00,
2014-01-04 18:48:00,18.0,8.9,29.99,NNW,337,9.0,17.0,67,0.00,,,-99.99,WeatherLink 5.5,2014-01-05 00:48:00,
2014-01-04 19:03:00,17.5,8.4,30.00,NNW,337,9.0,17.0,67,0.00,,,-99.99,WeatherLink 5.5,2014-01-05 01:03:00,
2014-01-04 19:18:00,17.0,7.9,30.02,North,0,8.0,14.0,67,0.00,,,-99.99,WeatherLink 5.5,2014-01-05 01:18:00,
2014-01-04 19:33:00,16.7,7.3,30.03,NNW,337,8.0,16.0,66,0.00,,,-99.99,WeatherLink 5.5,2014-01-05 01:33:00,
2014-01-04 19:48:00,16.5,6.8,30.04,NNW,337,9.0,17.0,65,0.00,,,-99.99,WeatherLink 5.5,2014-01-05 01:48:00,
2014-01-04 20:03:00,16.2,6.8,30.05,NNW,337,8.0,14.0,66,0.00,,,-99.99,WeatherLink 5.5,2014-01-05 02:03:00,
2014-01-04 20:18:00,15.9,6.9,30.05,NNW,337,7.0,13.0,67,0.00,,,-99.99,WeatherLink 5.5,2014-01-05 02:18:00,
2014-01-04 20:33:00,15.6,6.6,30.06,NNW,337,7.0,14.0,67,0.00,,,-99.99,WeatherLink 5.5,2014-01-05 02:33:00,
2014-01-04 20:48:00,15.2,6.2,30.07,NNW,337,9.0,17.0,67,0.00,,,-99.99,WeatherLink 5.5,2014-01-05 02:48:00,
2014-01-04 21:03:00,14.9,5.9,30.06,NNW,337,8.0,16.0,67,0.00,,,-99.99,WeatherLink 5.5,2014-01-05 03:03:00,
2014-01-04 21:18:00,14.6,5.6,30.07,NNW,337,7.0,17.0,67,0.00,,,-99.99,WeatherLink 5.5,2014-01-05 03:18:00,
2014-01-04 21:33:00,14.4,5.4,30.08,NNW,337,8.0,14.0,67,0.00,,,-99.99,WeatherLink 5.5,2014-01-05 03:33:00,
2014-01-04 21:48:00,14.3,5.7,30.08,NNW,337,7.0,12.0,68,0.00,,,-99.99,WeatherLink 5.5,2014-01-05 03:48:00,
2014-01-04 22:03:00,14.1,5.1,30.08,NNW,337,7.0,13.0,67,0.00,,,-99.99,WeatherLink 5.5,2014-01-05 04:03:00,
2014-01-04 22:18:00,14.0,5.7,30.08,NNW,337,7.0,14.0,69,0.00,,,-99.99,WeatherLink 5.5,2014-01-05 04:18:00,
2014-01-04 22:33:00,13.6,5.6,30.08,NNW,337,7.0,14.0,70,0.00,,,-99.99,WeatherLink 5.5,2014-01-05 04:33:00,
2014-01-04 22:48:00,13.5,5.5,30.08,NNW,337,7.0,14.0,70,0.00,,,-99.99,WeatherLink 5.5,2014-01-05 04:48:00,
2014-01-04 23:03:00,13.5,5.5,30.08,NNW,337,7.0,13.0,70,0.00,,,-99.99,WeatherLink 5.5,2014-01-05 05:03:00,
2014-01-04 23:18:00,13.1,4.8,30.09,NNW,337,6.0,12.0,69,0.00,,,-99.99,WeatherLink 5.5,2014-01-05 05:18:00,
2014-01-04 23:33:00,12.9,5.0,30.09,NNW,337,6.0,13.0,70,0.00,,,-99.99,WeatherLink 5.5,2014-01-05 05:33:00,
2014-01-04 23:48:00,12.8,5.2,30.09,NNW,337,6.0,11.0,71,0.00,,,-99.99,WeatherLink 5.5,2014-01-05 05:48:00,